Location: ?????????
(55.4932°N, 39.1489°E)
Time: 10:10:29
(UTC+00:00)

Daily predictions for brighter satellites

Satellite Brightness Start Highest point End
(mag) Time Altitude Azimuth Time Altitude Azimuth Time Altitude Azimuth
SPOT 5 3.6 17:09:13 10° SE 17:14:16 45° ENE 17:19:11 10° N
Cosmos 1503 Rocket 4.1 17:10:40 10° NNW 17:16:05 86° ENE 17:21:28 10° SSE
Cosmos 2369 Rocket 2.8 17:12:01 10° SW 17:17:39 63° NW 17:23:16 10° NNE
Cosmos 1354 Rocket 4.1 17:13:34 10° NNW 17:18:57 74° ENE 17:24:16 10° SE
NOSS 2-3 (E) 4.2 17:15:38 10° WSW 17:19:26 58° NNW 17:24:05 10° NE
Cosmos 2219 4.3 17:19:57 10° NNW 17:25:06 33° NE 17:30:12 10° ESE
ATLAS 5 CENTAUR R/B 1.2 17:23:01 10° SSW 17:26:20 50° SE 17:30:08 10° ENE
Terra 2.7 17:23:05 10° SE 17:27:19 33° ENE 17:31:33 10° N
BlueWalker 3 3.6 17:26:17 10° S 17:28:38 16° SE 17:30:58 10° ESE
USA 129 2.8 17:28:25 10° NE 17:28:34 10° ENE 17:28:34 10° ENE
Cosmos 332 Rocket 4.2 17:25:12 10° NNW 17:29:57 51° NE 17:34:40 10° SE
Cosmos 2098 Rocket 3.0 17:26:41 10° SSW 17:31:12 80° W 17:34:54 10° N
NOSS 8 (F) 4.2 17:28:35 10° NW 17:31:33 83° NE 17:34:51 11° SE
Iridium 4 Rocket 4.3 17:26:24 10° SSE 17:31:36 41° E 17:37:02 10° NNE
CARTOSAT-1 4.1 17:29:00 10° S 17:33:13 59° WSW 17:37:28 10° NNW
Sich 1 Rocket 3.9 17:30:44 10° SSE 17:34:59 48° E 17:39:18 10° NNE
Okean 1 Rocket 3.9 17:31:21 10° SSE 17:35:20 33° E 17:39:21 10° NNE
NOSS 2-2 (C) 4.0 17:33:20 10° WSW 17:36:22 45° NNW 17:39:43 10° NE
NOSS 3-2 (A) 4.4 17:29:57 10° WNW 17:36:23 53° NNE 17:44:10 10° E
Cosmos 2263 Rocket 3.5 17:32:21 10° NNW 17:37:20 31° NE 17:42:16 10° E
USA 245 4.2 17:32:48 10° SE 17:37:32 43° ENE 17:41:26 10° N
CZ-4B R/B 4.4 17:32:21 10° S 17:37:42 43° W 17:42:59 10° NNW
USA 267 3.3 17:31:16 10° ENE 17:37:49 68° SSE 17:44:22 10° SW
Cosmos 1455 4.4 17:35:27 10° SW 17:38:36 29° WNW 17:41:46 10° N
Okean-O 2.7 17:35:14 10° SSE 17:39:39 84° WSW 17:44:06 10° NNW
Nadezhda 3 Rocket 4.0 17:33:36 10° S 17:39:44 75° E 17:45:57 10° NNE
Ariane Rocket 3.6 17:36:14 10° SE 17:40:53 41° ENE 17:45:38 10° N
Cosmos 1605 Rocket 4.3 17:37:15 10° N 17:43:33 55° ENE 17:49:45 10° SSE
CZ-4C R/B 3.1 17:41:10 10° NNE 17:44:33 49° ESE 17:47:50 10° S
Cosmos 990 Rocket 4.2 17:42:12 10° NNW 17:47:21 58° ENE 17:51:50 13° SE
Cosmos 1437 Rocket 3.7 17:44:10 10° N 17:47:45 33° ENE 17:50:37 14° SE
Genesis I 4.0 17:46:23 10° WNW 17:49:48 40° SW 17:53:07 11° SSE
Aureole 1 Rocket 3.2 17:48:16 10° NNW 17:51:04 32° NE 17:53:03 16° ESE
Okean O Rocket 3.1 17:50:43 10° SSW 17:54:45 36° W 17:58:51 10° NNW
CZ-4 R/B 4.2 17:59:45 10° WSW 18:01:55 14° W 18:04:05 10° NW
CENTAUR R/B 3.4 17:54:40 10° NW 18:02:17 69° NNE 18:10:31 13° ESE
Cosmos 1536 Rocket 4.1 17:58:47 10° NNW 18:03:08 58° W 18:07:28 10° S
NOSS 3-1 (A) 3.2 18:01:15 10° SSW 18:06:19 65° SE 18:12:34 10° NE
IRS-1C Rocket 4.2 18:02:03 10° SSE 18:07:20 78° WSW 18:12:40 10° NNW
Resurs 01 Rocket 3.6 18:05:45 10° SSW 18:09:33 28° W 18:13:23 10° NNW
MOS 1 Rocket 3.9 18:07:00 17° SE 18:09:49 37° ENE 18:13:55 10° N
Cosmos 2058 3.7 18:08:43 10° N 18:12:27 35° ENE 18:14:40 20° ESE
Cosmos 1934 Rocket 4.3 18:08:18 10° NNW 18:14:25 69° W 18:20:35 10° S
USA 229 DEB 4.0 18:09:49 10° S 18:15:28 38° ESE 18:21:41 10° NE
USA 229 4.0 18:09:56 10° S 18:15:35 38° ESE 18:21:46 10° NE
ERS-1 Rocket 2.9 18:11:31 13° SSE 18:15:56 86° ENE 18:20:59 10° NNW
SPOT 3 Rocket 3.6 18:14:33 16° SSE 18:18:38 70° ENE 18:23:49 10° NNW
USA 281 4.2 18:13:41 10° S 18:19:54 44° WSW 18:26:10 10° NW
Cosmos 1339 Rocket 4.4 18:13:59 10° S 18:20:08 89° ESE 18:26:16 10° NNE
Cosmos 2227 Rocket 2.2 18:20:46 10° NW 18:26:30 88° WSW 18:30:32 20° SSE
NOSS 3-1 (C) 3.6 18:21:37 10° WSW 18:26:54 70° NNW 18:33:31 10° NE
Cosmos 2151 Rocket 4.2 18:23:01 10° SSW 18:27:22 59° WNW 18:31:48 10° N
Cosmos 2344 4.3 18:21:05 10° W 18:28:12 54° NNW 18:36:20 10° ENE
Landsat 5 4.3 18:25:25 10° NNE 18:29:14 31° E 18:30:43 24° SE
Cosmos 1980 Rocket 3.6 18:31:51 18° ESE 18:32:41 19° E 18:36:28 10° ENE
ATLAS CENTAUR R/B 1.1 18:29:11 10° NW 18:32:56 86° SW 18:34:52 28° SE
Cosmos 292 Rocket 3.9 18:32:40 10° NNW 18:37:25 64° ENE 18:40:04 25° SE
Cosmos 1892 Rocket 3.5 18:33:48 10° NNW 18:38:10 81° W 18:41:02 21° S
Cosmos 1937 Rocket 3.8 18:35:08 10° NNW 18:40:25 59° ENE 18:43:32 24° SE
COSMOS 2455 3.3 18:34:46 10° NW 18:40:38 53° WSW 18:44:51 19° S
ATLAS 3B R/B 3.0 18:33:21 10° SW 18:40:39 87° NW 18:48:26 10° NE
Cosmos 1697 Rocket 3.2 18:37:21 18° SSE 18:41:04 38° ESE 18:46:16 10° NE
Cosmos 2360 4.4 18:36:25 10° S 18:41:52 49° ESE 18:47:20 10° NE
SL-4 R/B 2.7 18:39:26 10° W 18:42:30 27° SSW 18:43:07 26° S
H-2A R/B 4.0 18:42:12 16° E 18:43:38 20° ENE 18:46:27 10° N
Okean 1-7 Rocket 4.5 18:43:16 10° N 18:47:30 36° ENE 18:49:22 26° ESE
Okean 2 Rocket 4.4 18:45:18 10° SW 18:49:34 41° WNW 18:53:52 10° N
CZ-4C R/B 3.1 18:45:19 10° NW 18:52:04 65° SW 18:57:31 23° SSE
SPOT 5 4.3 18:47:23 10° SSW 18:52:21 39° W 18:57:14 10° NNW
NOSS 3-2 (C) 4.3 18:45:57 10° NW 18:52:37 61° NNE 18:59:43 14° ESE
Cosmos 1898 Rocket 3.5 18:47:40 10° NNW 18:52:58 88° ENE 18:55:50 28° SSE
MetOp-A 3.2 18:52:40 33° SSE 18:54:17 83° ENE 18:58:07 10° NNW
Cosmos 2297 Rocket 3.3 18:49:26 10° NW 18:54:35 37° WSW 18:58:47 15° S
Cosmos 1602 Rocket 4.3 18:51:29 10° N 18:55:34 38° ENE 18:57:08 28° ESE
Cosmos 1758 Rocket 4.2 18:51:58 10° N 18:56:14 43° ENE 18:57:55 30° ESE
Spot 2 Rocket 4.0 18:56:17 18° S 18:59:55 56° W 19:04:54 10° NNW
Cosmos 405 Rocket 2.5 18:59:06 25° SSW 19:01:10 89° WNW 19:04:55 10° NNE
USA 81 4.0 18:58:09 25° SSE 19:01:13 67° E 19:06:27 10° NNE
Cosmos 2228 4.0 19:01:42 27° ESE 19:02:16 28° E 19:05:54 10° NNE
Cosmos 1725 Rocket 4.4 18:56:37 10° N 19:02:38 49° ENE 19:05:48 27° SE
ARIANE 5 R/B 3.4 19:02:21 28° ESE 19:04:07 41° ENE 19:08:20 10° N
Cosmos 1459 Rocket 4.0 18:58:09 10° N 19:04:13 70° ENE 19:07:34 28° SSE
Cosmos 1656 3.7 18:58:57 10° SW 19:04:31 80° NW 19:10:03 10° NNE
Terra 2.6 19:01:25 17° SSW 19:04:49 46° W 19:09:23 10° NNW
Meteor 2-1 Rocket 4.4 19:03:28 29° SSE 19:06:02 50° E 19:11:22 10° NNE
BlueWalker 3 2.2 19:02:32 10° SW 19:06:07 43° SSE 19:06:07 43° SSE
Spot 1 4.1 19:03:33 10° NNE 19:08:18 77° ESE 19:10:50 26° S
Cosmos 2219 3.2 19:04:06 10° NW 19:09:47 75° WSW 19:12:38 30° SSE
ATLAS 5 CENTAUR R/B 2.6 19:06:55 10° W 19:10:22 40° NNW 19:14:23 10° NE
Cosmos 1455 Rocket 3.1 19:09:45 20° SSW 19:12:43 76° WNW 19:17:08 10° N
Okean 1 Rocket 4.5 19:08:57 10° SW 19:13:07 38° WNW 19:17:21 10° N
Ariane Rocket 4.0 19:16:23 17° SSW 19:19:53 40° W 19:24:38 10° NNW
Cosmos 858 Rocket 4.5 19:15:08 10° NNW 19:20:28 88° ENE 19:22:42 36° SSE
USA 267 3.3 19:14:26 10° ENE 19:21:01 82° N 19:27:36 10° W
Cosmos 1666 4.2 19:18:43 10° NNE 19:21:30 21° ENE 19:21:53 21° ENE
Cosmos 2263 Rocket 2.1 19:16:16 10° NW 19:21:56 85° WSW 19:24:25 35° SSE
ALOS 2 4.2 19:21:11 20° E 19:22:46 25° ENE 19:26:19 10° N
Cosmos 1763 Rocket 3.4 19:17:53 11° SSW 19:22:51 85° WNW 19:28:03 10° NNE
Cosmos 1437 Rocket 4.3 19:19:57 10° NNW 19:23:27 31° W 19:25:29 19° SW
NOSS 3-2 (A) 3.9 19:20:48 10° NW 19:27:50 82° SW 19:32:37 28° SE
Cosmos 2082 3.7 19:22:31 10° NW 19:28:13 80° WSW 19:30:38 36° SSE
Cosmos 2173 Rocket 4.1 19:22:31 10° NNW 19:28:56 81° W 19:32:25 29° S
Cosmos 44 3.5 19:24:11 10° SW 19:29:36 89° NW 19:34:54 10° NE
Cosmos 1862 3.7 19:26:00 10° N 19:29:48 45° ENE 19:30:23 41° E
Aureole 1 Rocket 4.2 19:31:52 10° WNW 19:34:04 19° WSW 19:34:29 18° WSW
Cosmos 1544 2.7 19:31:09 10° N 19:33:47 68° N 19:33:47 68° N
Meteor 2-3 Rocket 3.7 19:29:10 10° NNW 19:34:52 87° WSW 19:37:24 35° S
Cosmos 1271 Rocket 3.7 19:36:07 10° N 19:39:33 31° ENE 19:39:59 31° E
Cosmos 2322 Rocket 4.3 19:40:26 10° E 19:40:26 10° E 19:41:01 10° E
Cosmos 1500 3.7 19:39:16 10° N 19:42:37 40° ENE 19:42:39 40° ENE
Cosmos 540 Rocket 3.5 19:39:04 19° SSW 19:42:48 80° WNW 19:47:57 10° NNE
Meteor 2-15 4.5 19:36:54 10° NNW 19:43:03 79° W 19:45:56 33° S
Meteor 2-15 Rocket 4.4 19:40:08 10° NNW 19:46:21 87° E 19:48:58 37° SSE
Intercosmos 25 4.3 19:42:45 10° NNW 19:47:44 47° W 19:49:00 34° SW
MOS 1 Rocket 4.4 19:46:11 23° SW 19:48:03 33° W 19:52:04 10° NNW
Cosmos 1864 Rocket 4.4 19:42:08 10° NNW 19:48:21 85° W 19:51:03 36° S
Cosmos 2058 4.3 19:45:27 10° NNW 19:49:00 30° W 19:50:33 23° SW
Cosmos 1606 2.4 19:49:35 79° SE 19:49:42 81° E 19:53:21 10° NNE
Cosmos 1626 Rocket 4.3 19:46:19 10° NNW 19:50:34 47° W 19:52:02 34° SW
Cosmos 1802 Rocket 4.1 19:44:56 10° NNW 19:51:12 76° W 19:54:10 34° S
PSLV R/B 4.2 19:47:49 10° NNE 19:51:47 49° E 19:51:51 49° ESE
USA 238 DEB 4.1 19:45:28 10° NW 19:52:32 69° NNE 19:58:10 20° ESE
Spot 4 4.2 19:51:15 41° ESE 19:52:36 56° ENE 19:57:19 10° N
USA 238 4.1 19:45:34 10° NW 19:52:37 69° NNE 19:58:18 19° ESE
CENTAUR R/B 3.5 19:45:22 10° NW 19:53:13 58° SW 19:57:39 31° SSE
Cosmos 468 Rocket 4.2 19:51:31 18° SW 19:55:22 71° WNW 20:00:38 10° NNE
Cosmos 1844 4.4 19:51:10 10° NNW 19:56:47 49° NE 19:59:45 26° ESE
NOSS 3-1 (A) 4.2 19:52:01 10° W 19:57:25 52° NNW 20:04:08 10° NE
Cosmos 2016 Rocket 4.0 19:52:34 10° NNW 19:58:42 78° W 20:01:17 37° S
SL-16 R/B 3.6 19:59:19 22° E 19:59:19 22° E 20:03:27 10° NE
Cosmos 1953 Rocket 3.8 20:00:02 10° N 20:04:19 52° ENE 20:04:56 48° ESE
Cosmos 841 Rocket 3.3 20:03:36 43° SSW 20:05:17 79° ESE 20:10:27 10° NNE
Uosat 12 SS-18 rocket 3.9 20:00:45 10° NW 20:05:29 79° SW 20:06:08 63° SSE
USA 229 DEB 3.8 19:59:37 10° WSW 20:05:59 76° NW 20:13:07 10° NE
USA 229 3.8 19:59:42 10° WSW 20:06:05 76° NW 20:13:12 10° NE
Cosmos 1844 Rocket 3.0 20:00:57 10° NNW 20:06:31 59° NE 20:08:52 34° ESE
Spot 2 3.8 20:09:01 67° ESE 20:09:25 75° ENE 20:13:30 10° NNW
Cosmos 1125 Rocket 4.0 20:04:21 10° NNW 20:09:29 53° NE 20:11:22 35° ESE
Cosmos 1869 3.6 20:09:00 48° WSW 20:09:40 57° WNW 20:13:29 10° N
Cosmos 2227 Rocket 4.0 20:05:44 10° NW 20:09:49 21° W 20:12:21 15° SW
ATLAS CENTAUR R/B 3.3 20:07:50 10° W 20:09:58 16° WSW 20:09:58 16° WSW
MINOTAUR 4 R/B 4.4 20:10:21 10° N 20:13:03 51° NW 20:13:03 51° NW
Cosmos 1544 Rocket 4.2 20:12:25 32° SW 20:14:00 49° WNW 20:18:14 10° N
Cosmos 1980 Rocket 2.1 20:13:32 37° SSW 20:15:51 81° ESE 20:21:33 10° NE
H-2A R/B 2.4 20:18:14 57° WSW 20:18:20 57° WSW 20:22:06 10° NNW
Cosmos 2278 4.3 20:20:58 38° ESE 20:21:23 38° ESE 20:26:34 10° NE
GENESIS II 4.5 20:20:04 10° NW 20:23:08 54° W 20:23:08 54° W
Cosmos 2123 Rocket 4.1 20:21:07 33° SSW 20:24:08 75° WNW 20:30:31 10° N
Cosmos 1697 Rocket 3.3 20:19:19 10° SW 20:24:54 56° NW 20:30:30 10° NNE
Cosmos 1812 4.3 20:29:18 23° ENE 20:29:18 23° ENE 20:31:32 10° NE
Cosmos 2151 2.8 20:25:43 10° N 20:29:59 79° ENE 20:30:13 75° ESE
Meteor 1-27 4.1 20:28:24 47° S 20:30:06 88° ESE 20:35:43 10° NNE
CZ-2C R/B 3.9 20:26:32 10° NNE 20:31:17 70° WNW 20:32:37 46° SW
ATLAS 3B R/B 3.9 20:25:01 10° W 20:32:15 50° NNW 20:39:49 10° ENE
Cosmos 2228 4.0 20:38:16 32° WSW 20:39:28 40° WNW 20:43:27 10° N
CZ-4C R/B 4.4 20:34:27 10° WNW 20:39:52 23° WSW 20:42:37 19° SW
ARIANE 5 R/B 3.7 20:39:49 31° WSW 20:40:35 34° W 20:44:42 10° NNW
NOSS 3-2 (C) 4.0 20:36:47 10° NW 20:43:52 65° SW 20:47:07 39° SSE
Cosmos 2344 4.3 20:36:35 10° WNW 20:44:00 57° NNE 20:53:24 10° E
Cosmos 2227 4.4 20:39:02 10° NW 20:44:38 57° WSW 20:45:50 48° SSW
Cosmos 2369 3.7 20:45:58 36° SW 20:48:21 80° NW 20:54:04 10° NNE
Cosmos 2233 Rocket 4.4 20:42:37 10° NNW 20:48:36 54° W 20:50:44 37° SW
Cosmos 1076 Rocket 3.3 20:44:58 10° NNW 20:49:17 87° E 20:49:28 82° SSE
Cosmos 2150 Rocket 4.2 20:45:45 10° NNW 20:50:54 64° ENE 20:52:20 45° ESE
Cosmos 1825 Rocket 4.3 20:48:25 10° NNW 20:52:32 40° W 20:52:59 39° WSW
Cosmos 1606 Rocket 3.6 20:53:31 61° WSW 20:53:59 66° WNW 20:58:18 10° N
H-2A R/B 2.7 20:50:13 10° NNE 20:53:58 40° E 20:53:58 40° E
Cosmos 2298 Rocket 4.2 20:49:20 10° NNW 20:54:40 69° ENE 20:56:09 46° SE
ATLAS 5 CENTAUR R/B 3.5 20:51:40 10° WNW 20:55:11 29° N 20:59:20 10° ENE
Cosmos 1666 3.6 20:52:48 10° NNW 20:55:38 38° WNW 20:55:38 38° WNW
Lacrosse 4 Rocket 1.6 20:57:46 55° ENE 20:57:46 55° ENE 21:01:05 10° NE
Cosmos 1464 Rocket 4.1 20:51:46 10° N 20:58:09 73° ENE 21:00:18 44° SSE
ALOS 2 2.7 20:58:34 58° WSW 20:58:49 59° W 21:03:10 10° NNW
Cosmos 1447 Rocket 4.4 20:57:57 47° SSW 20:59:54 88° W 21:06:06 10° NNE
SL-19 R/B 4.3 20:58:16 10° NNE 21:03:56 89° WNW 21:05:43 47° SSW
USA 267 3.2 20:57:27 10° E 21:04:02 86° NNE 21:10:38 10° WNW
Cosmos 2263 Rocket 3.8 21:01:10 10° WNW 21:05:05 20° W 21:06:06 19° WSW
Cosmos 1814 Rocket 3.9 21:04:55 58° SSW 21:06:00 89° WNW 21:11:12 10° NNE
Cosmos 2360 Rocket 3.0 21:09:23 34° ESE 21:09:48 34° ESE 21:14:50 10° NE
Helios 1A Rocket 4.1 21:09:10 29° E 21:09:53 31° ENE 21:13:25 10° N
Cosmos-2242 3.9 21:09:57 37° E 21:09:57 37° E 21:13:46 10° NNE
Cosmos 2058 Rocket 2.9 21:10:16 80° SE 21:10:23 81° E 21:14:46 10° NNE
Aureole 3 Rocket 3.9 21:06:47 10° N 21:11:12 36° ENE 21:11:48 34° E
Cosmos 1891 Rocket 4.5 21:06:39 10° NNW 21:12:48 73° W 21:14:37 47° SSW
Cosmos 1513 Rocket 4.4 21:07:11 10° NNW 21:13:18 77° W 21:15:01 49° S
Cosmos 1271 Rocket 4.1 21:11:37 10° NNW 21:14:33 29° W 21:14:33 29° W
Meteor 1-20 Rocket 4.1 21:10:00 10° NNW 21:15:39 90° E 21:17:02 54° SSE
Cosmos 1867 4.0 21:10:20 10° NW 21:15:48 61° NE 21:19:19 22° ESE
Cosmos 1461 4.1 21:12:29 10° NW 21:16:09 37° NNE 21:17:59 23° E
Cosmos 2084 Rocket 3.8 21:14:16 10° NW 21:17:19 50° WNW 21:17:19 50° WNW
Cosmos 2034 Rocket 4.0 21:14:03 10° N 21:20:15 73° ENE 21:22:16 44° SSE
Cosmos 2278 Rocket 3.7 21:15:30 10° NNW 21:20:39 34° NE 21:25:48 10° ESE
Cosmos 2333 Rocket 2.9 21:21:49 35° ESE 21:22:21 36° ESE 21:27:28 10° NE
Cosmos 2322 Rocket 2.4 21:22:13 48° SE 21:22:55 51° ESE 21:28:21 10° NE
Cosmos 1570 Rocket 4.0 21:22:21 58° SSE 21:23:00 64° ESE 21:28:10 10° NNE
Cosmos 2219 Rocket 3.5 21:24:01 24° ESE 21:24:36 25° ESE 21:29:02 10° NE
Lacrosse 5 2.9 21:26:47 31° ESE 21:26:47 31° ESE 21:30:12 10° ENE
Meteor 1-25 Rocket 4.1 21:21:48 10° NNW 21:27:28 88° WSW 21:28:46 55° S
SL-24 R/B 4.3 21:22:27 10° NNE 21:27:34 72° ESE 21:28:07 64° SSE
Cosmos 1726 Rocket 4.5 21:33:51 35° W 21:34:34 38° WNW 21:38:38 10° N
Cosmos 2221 4.1 21:36:52 22° E 21:37:23 23° E 21:40:44 10° NE
Cosmos 1809 Rocket 4.4 21:36:56 47° SSW 21:38:52 79° WNW 21:45:07 10° N
Cosmos 1844 4.1 21:35:29 10° NW 21:40:57 45° WSW 21:41:36 44° SW
Cosmos 1634 Rocket 4.4 21:34:56 10° N 21:41:12 60° ENE 21:43:58 34° SE
Geosat 3.9 21:40:26 57° SSE 21:41:30 86° SW 21:46:34 10° NW
Cosmos 1238 Rocket 3.5 21:42:25 39° WNW 21:42:25 39° WNW 21:45:45 10° N
SL-16 R/B 2.1 21:41:08 51° SW 21:42:40 89° WNW 21:48:24 10° NE
USA 238 DEB 4.1 21:36:31 10° NW 21:43:30 52° SW 21:45:33 42° S
USA 238 4.1 21:36:37 10° NW 21:43:36 52° SW 21:45:41 42° S
SL-19 R/B 4.5 21:39:26 10° NNE 21:43:37 71° ESE 21:43:47 70° SE
Cosmos 1782 2.9 21:49:03 63° ENE 21:49:03 63° ENE 21:52:36 10° NNE
Cosmos 1844 Rocket 3.4 21:45:09 10° NW 21:50:12 35° WSW 21:50:30 35° WSW
Cosmos 1125 Rocket 4.4 21:46:41 10° NW 21:51:22 34° WSW 21:51:35 34° WSW
Cosmos 1378 4.3 21:57:02 30° ENE 21:57:02 30° ENE 21:59:34 10° NNE
Resurs 1-4 Rocket 4.3 21:53:34 10° NE 21:56:40 15° E 21:59:26 11° ESE
Cosmos 1943 Rocket 3.7 21:53:18 10° NNW 21:58:31 36° NE 22:03:44 10° ESE
NOSS 2-1 (E) 3.9 22:00:22 40° NNE 22:00:22 40° NNE 22:02:35 10° NE
Cosmos 1980 Rocket 3.7 21:55:27 10° W 22:00:28 32° NW 22:05:32 10° NNE
PSLV R/B 4.1 21:56:01 10° N 22:00:34 57° WNW 22:01:26 49° WSW
NOSS 2-1 (C) 3.8 22:01:53 42° NNE 22:01:53 42° NNE 22:04:13 10° NE
Timation 2 Rocket 4.4 21:55:58 10° NW 22:02:13 45° WSW 22:03:23 41° SW
NOSS 2-2 (E) 3.6 21:58:27 10° NW 22:02:22 78° NE 22:05:29 23° ESE
Cosmos 158 Rocket 3.7 22:01:42 63° S 22:02:26 77° ESE 22:07:29 10° NNE
Cosmos 2084 4.0 22:01:57 37° WNW 22:02:59 48° NNW 22:06:43 10° NE
Cosmos 1812 3.7 22:03:29 34° WNW 22:03:29 34° WNW 22:06:41 10° N
Cosmos 2278 4.2 22:02:49 31° WSW 22:05:22 55° NW 22:10:59 10° NNE
Meteor 2-2 Rocket 4.3 22:06:08 49° S 22:07:51 84° ESE 22:13:52 10° NNE
Cosmos 1816 Rocket 4.4 22:06:57 46° SSW 22:08:54 79° WNW 22:15:05 10° N
USA 215 4.0 22:03:23 10° ENE 22:09:14 33° SE 22:10:14 32° SSE
Cosmos 489 Rocket 4.4 22:03:45 10° NNW 22:10:04 77° WSW 22:12:17 43° S
Cosmos 1933 3.1 22:12:29 89° E 22:12:29 89° E 22:16:29 10° NNE
Cosmos 1766 Rocket 3.6 22:09:13 10° N 22:13:33 70° ENE 22:14:15 57° SE
CZ-2C R/B 4.0 22:13:11 10° ESE 22:17:56 35° ENE 22:22:43 10° N
Cosmos 1743 2.9 22:15:15 10° N 22:18:56 58° ENE 22:19:05 58° E
SL-16 R/B 4.1 22:14:27 10° ESE 22:19:53 33° NE 22:25:21 10° N
NOSS 2-2 (D) 3.6 22:16:44 10° NW 22:20:37 79° NE 22:25:55 10° SE
NOSS 2-3 (C) 4.3 22:16:20 10° NW 22:21:29 86° NE 22:28:35 10° SE
Meteor 1-5 Rocket 4.3 22:15:57 10° NNW 22:21:42 67° W 22:23:22 46° SSW
Cosmos 2208 Rocket 4.2 22:21:10 43° SW 22:22:52 67° WNW 22:28:20 10° NNE
Cosmos 1726 3.7 22:20:33 10° NNE 22:23:13 23° ENE 22:23:57 21° E
Cosmos 1515 3.6 22:24:45 71° NNW 22:24:45 71° NNW 22:28:01 10° N
ATLAS 3B R/B 3.9 22:17:03 10° WNW 22:24:27 49° NNE 22:32:03 10° E
Cosmos 2279 Rocket 4.0 22:18:25 10° N 22:24:42 77° ENE 22:27:37 34° SSE
NOSS 3-4 (A) 3.3 22:25:04 47° S 22:26:31 62° SE 22:32:38 10° NE
NOSS 2-3 (D) 4.3 22:21:26 10° NW 22:26:34 87° NE 22:33:36 10° SE
NOSS 3-4 (C) 3.4 22:25:07 47° S 22:26:34 62° SE 22:32:41 10° NE
H-2A R/B 3.2 22:26:10 10° N 22:29:52 31° WNW 22:30:48 28° W
NOSS 2-1 (D) 3.8 22:29:54 38° NNW 22:29:57 38° NNW 22:32:54 10° NE
ADEOS II 4.2 22:28:02 10° NE 22:31:40 19° E 22:35:12 10° SE
Cosmos 44 Rocket 3.6 22:32:11 49° S 22:33:10 58° SE 22:38:14 10° NE
Meteor 1-26 Rocket 4.3 22:31:16 44° S 22:33:12 80° ESE 22:39:08 10° NNE
Lacrosse 4 Rocket 3.0 22:33:41 18° WNW 22:35:45 28° NNW 22:39:15 10° NNE
Cosmos 2237 Rocket 4.1 22:34:53 14° SE 22:37:35 20° E 22:41:33 10° NE
ATLAS 5 CENTAUR R/B 2.7 22:35:42 10° NW 22:39:54 48° NNE 22:45:06 10° ESE
COSMOS 2428 3.4 22:39:20 32° SSE 22:41:14 43° ESE 22:46:35 10° NE
Nimbus 7 Rocket 4.3 22:36:43 10° NNE 22:42:37 84° WNW 22:44:50 41° SSW
Tsikada Rocket 4.0 22:40:53 40° SSW 22:43:12 71° WNW 22:49:23 10° N
Helios 1A Rocket 3.7 22:44:37 35° W 22:44:37 35° W 22:47:57 10° NNW
GEOS 3 Rocket 3.5 22:40:54 19° SE 22:44:49 76° SW 22:50:09 10° NW
Cosmos 773 Rocket 4.0 22:45:07 46° SW 22:46:45 81° WNW 22:52:03 10° NNE
Cosmos-2242 4.1 22:46:33 29° W 22:47:16 31° WNW 22:51:04 10° N
USA 267 3.2 22:40:55 10° SE 22:47:21 57° SSW 22:53:50 10° WNW
Meteor 1-14 Rocket 4.1 22:42:19 10° NNW 22:47:54 85° WSW 22:50:12 37° S
Cosmos 1812 Rocket 4.2 22:48:04 38° W 22:48:55 43° WNW 22:53:12 10° N
Cosmos 2322 3.9 22:50:35 38° S 22:52:36 60° ESE 22:58:15 10° NE
NOSS 2-3 (E) 4.3 22:47:57 10° NW 22:53:12 70° SW 23:00:23 10° SE
Cosmos 2360 Rocket 2.5 22:51:06 33° WSW 22:53:33 61° NW 22:59:11 10° NNE
Cosmos 1461 3.4 22:50:48 10° NW 22:53:33 39° W 22:53:33 39° W
IRIDIUM 103 4.4 22:50:09 10° N 22:55:24 78° E 22:57:45 34° SSE
Okean 3 Rocket 3.5 22:51:10 10° NNW 22:55:44 82° W 22:56:56 49° S
Cosmos 2333 4.2 22:54:04 38° SW 22:56:15 75° NW 23:01:54 10° NNE
Aureole 3 Rocket 4.3 22:54:26 10° NNW 22:58:09 25° W 22:58:11 25° W
Cosmos 2344 3.9 22:50:58 10° NW 22:58:58 74° SW 23:09:48 10° SE
Cosmos 1867 3.9 22:54:09 10° NW 22:59:18 42° WSW 22:59:55 40° SW
Cosmos 783 Rocket 4.4 22:58:25 43° SSW 23:00:11 89° NW 23:05:26 10° NNE
RESURS DK-1 3.3 23:01:49 31° SE 23:02:36 34° ESE 23:06:18 10° NE
H-2A R/B 3.8 22:58:58 10° NNE 23:03:01 54° ESE 23:04:08 40° SSE
Cosmos 2278 Rocket 2.1 22:59:34 10° NW 23:05:17 75° WSW 23:09:02 22° SSE
Cosmos 2333 Rocket 2.5 23:03:47 31° WSW 23:06:26 58° NW 23:12:03 10° NNE
Cosmos 2322 Rocket 3.0 23:04:00 23° WSW 23:07:06 44° NW 23:12:30 10° NNE
Cosmos 2219 Rocket 2.2 23:05:42 37° SW 23:08:00 79° NW 23:13:38 10° NNE
NOSS 2-2 (C) 3.7 23:04:08 10° WNW 23:08:08 59° SW 23:13:39 10° SE
Lacrosse 5 1.8 23:05:56 34° WSW 23:08:12 85° SSE 23:13:21 10° ENE
Cosmos 1538 Rocket 4.5 23:08:48 31° S 23:11:05 54° ESE 23:16:16 10° NE
CZ-2D R/B 2.8 23:06:51 10° NNE 23:12:05 49° E 23:15:11 23° SSE
BREEZE-M DEB (TANK) 3.7 23:13:45 34° SSE 23:13:45 34° SSE 23:18:56 10° E
Cosmos 192 4.2 23:08:43 10° NNW 23:13:38 77° WSW 23:16:12 28° SSE
IRIDIUM 106 4.2 23:08:27 10° N 23:13:43 80° W 23:16:01 34° S
Cosmos 2221 2.8 23:13:29 42° WSW 23:14:26 51° WNW 23:18:38 10° N
Cosmos 1408 Rocket 3.4 23:11:47 10° NNW 23:16:08 86° WSW 23:17:46 38° S
Cosmos 2056 Rocket 4.2 23:12:02 10° NNW 23:17:21 56° NE 23:22:41 10° SE
Meteor 1-11 Rocket 3.6 23:13:18 10° NNW 23:18:55 90° ENE 23:22:32 22° SSE
Cosmos 1842 Rocket 3.5 23:21:55 41° SSW 23:23:27 86° WNW 23:27:57 10° NNE
ATLAS 2AS CENTAUR R/B 4.4 23:21:20 11° SSE 23:26:41 23° ESE 23:32:05 10° ENE
Cosmos 972 Rocket 4.0 23:24:39 34° SW 23:26:52 68° WNW 23:31:51 10° NNE
CZ-2C R/B 4.0 23:22:31 10° NNE 23:27:26 43° E 23:31:22 17° SSE
SL-16 R/B 3.7 23:22:57 12° W 23:27:31 29° NNW 23:32:29 10° NNE
MOZ.5/SAFIR/RUBIN 5/SL-8 4.4 23:27:03 34° WSW 23:28:00 37° W 23:32:26 10° NNW
Cosmos 1624 Rocket 4.4 23:23:17 10° NNW 23:28:32 64° ENE 23:33:41 10° SE
Cosmos 1733 3.6 23:25:12 10° N 23:28:47 57° ENE 23:30:51 23° SSE
Cosmos 1378 4.4 23:30:16 23° WNW 23:30:32 24° WNW 23:33:20 10° N
SL-16 R/B 4.5 23:28:15 10° SE 23:31:43 17° E 23:35:12 10° ENE
Cosmos 1500 Rocket 3.5 23:30:49 10° NNW 23:35:18 76° W 23:37:28 29° S
Cosmos 1805 Rocket 3.4 23:31:34 10° NNW 23:35:56 88° WSW 23:38:22 26° S
IDEFIX/ARIANE 42P 2.5 23:31:45 10° NNE 23:36:59 88° ESE 23:39:49 28° SSW
Resurs 1-4 Rocket 2.2 23:32:03 10° NNE 23:37:24 76° ESE 23:40:31 25° S
Sich 1 2.9 23:34:50 10° NNW 23:39:05 84° W 23:41:25 26° S
NOSS 3-1 (A) 4.2 23:34:44 10° NW 23:41:21 69° NNE 23:49:36 10° ESE
Cosmos 1536 2.9 23:37:48 10° NNW 23:41:35 52° W 23:42:36 39° SW
Cosmos 1943 Rocket 2.1 23:37:03 10° NW 23:42:42 68° WSW 23:48:19 10° SSE
ALOS 3.5 23:42:09 10° NNE 23:46:27 36° E 23:50:33 11° SSE
NOSS 0 Rocket 4.1 23:43:20 25° SSW 23:47:02 69° ESE 23:53:11 10° NE
Okean 1 3.2 23:48:49 31° S 23:50:32 80° ESE 23:54:22 10° NNE
Intercosmos 25 Rocket 4.5 23:47:31 10° N 23:50:49 43° ENE 23:55:16 10° SSE
Gbstr 26 Del rocket 3.2 23:49:29 33° SW 23:50:51 46° S 23:54:35 10° E
USA 215 3.3 23:46:23 10° ENE 23:52:57 73° SSE 23:57:34 21° WSW
COBE Rocket 3.7 23:50:19 10° NNE 23:55:01 83° WNW 23:57:42 25° SSW
Cosmos 1726 2.7 23:53:52 10° NNW 23:56:41 29° W 23:56:41 29° W
